Location: Namasale
(1.5000°N, 32.6167°E)
Time: 20:29:31
(UTC+00:00)

Courier 1B - Pass Details

Date: 23 April 2021
Orbit: 962 x 1209 km, 28.3° (Epoch: 09 May)

Event Time Altitude Azimuth Distance (km) Brightness Sun altitude
Rises 07:06:29 0° 264° (W) 3,984 10.3 48.5°
Reaches altitude 10° 07:09:45 10° 275° (W) 2,982 9.8 49.3°
Maximum altitude 07:15:54 29° 332° (NNW) 1,855 9.3 50.8°
Drops below altitude 10° 07:21:45 10° 30° (NNE) 2,821 10.5 52.1°
Sets 07:24:46 0° 42° (NE) 3,734 11.0 52.9°
